Time,TemperatureF,DewpointF,PressureIn,WindDirection,WindDirectionDegrees,WindSpeedMPH,WindSpeedGustMPH,Humidity,HourlyPrecipIn,Conditions,Clouds,dailyrainin,SoftwareType,DateUTC
2013-05-08 00:01:00,56.5,50.4,29.87,SW,222,0.0,9.0,80,0.00,,,0.00,Wunderground v.1.15,2013-05-08 05:01:00,
2013-05-08 00:03:00,56.4,50.3,29.87,SSE,148,0.0,9.0,80,0.00,,,0.00,Wunderground v.1.15,2013-05-08 05:03:00,
2013-05-08 00:06:00,56.4,50.3,29.87,SSE,148,0.0,9.0,80,0.00,,,0.00,Wunderground v.1.15,2013-05-08 05:06:00,
2013-05-08 00:08:00,56.3,50.2,29.88,SSE,148,0.0,9.0,80,0.00,,,0.00,Wunderground v.1.15,2013-05-08 05:08:00,
2013-05-08 00:10:00,56.3,50.2,29.87,SSE,148,0.0,0.0,80,0.00,,,0.00,Wunderground v.1.15,2013-05-08 05:10:00,
2013-05-08 00:12:00,56.1,50.0,29.88,SSE,148,0.0,0.0,80,0.00,,,0.00,Wunderground v.1.15,2013-05-08 05:12:00,
2013-05-08 00:16:00,55.4,49.3,29.87,SSE,148,0.0,1.0,80,0.00,,,0.00,Wunderground v.1.15,2013-05-08 05:16:00,
2013-05-08 00:18:00,55.0,49.3,29.88,SSE,148,0.0,1.0,81,0.00,,,0.00,Wunderground v.1.15,2013-05-08 05:18:00,
2013-05-08 00:23:00,54.3,48.9,29.87,SSE,148,0.0,0.0,82,0.00,,,0.00,Wunderground v.1.15,2013-05-08 05:23:00,
2013-05-08 00:26:00,54.1,49.4,29.87,SSE,148,0.0,0.0,84,0.00,,,0.00,Wunderground v.1.15,2013-05-08 05:26:00,
2013-05-08 00:30:00,54.2,49.8,29.87,SSE,148,0.0,0.0,85,0.00,,,0.00,Wunderground v.1.15,2013-05-08 05:30:00,
2013-05-08 00:36:00,55.3,50.2,29.87,SSW,192,0.0,1.0,83,0.00,,,0.00,Wunderground v.1.15,2013-05-08 05:36:00,
2013-05-08 00:38:00,55.5,50.4,29.87,SW,229,1.0,1.0,83,0.00,,,0.00,Wunderground v.1.15,2013-05-08 05:38:00,
2013-05-08 00:40:00,55.7,50.3,29.87,SW,228,1.0,1.0,82,0.00,,,0.00,Wunderground v.1.15,2013-05-08 05:40:00,
2013-05-08 00:42:00,55.8,50.4,29.87,SSW,195,1.0,1.0,82,0.00,,,0.00,Wunderground v.1.15,2013-05-08 05:42:00,
2013-05-08 00:43:00,55.8,50.4,29.87,SSW,211,1.0,1.0,82,0.00,,,0.00,Wunderground v.1.15,2013-05-08 05:43:00,
2013-05-08 00:48:00,56.2,50.4,29.87,West,268,1.0,3.0,81,0.00,,,0.00,Wunderground v.1.15,2013-05-08 05:48:00,
2013-05-08 00:52:00,55.9,50.2,29.87,SW,214,2.0,2.0,81,0.00,,,0.00,Wunderground v.1.15,2013-05-08 05:52:00,
2013-05-08 00:54:00,56.1,50.3,29.87,SSW,197,2.0,4.0,81,0.00,,,0.00,Wunderground v.1.15,2013-05-08 05:54:00,
2013-05-08 00:56:00,56.3,50.5,29.87,SSE,152,3.0,4.0,81,0.00,,,0.00,Wunderground v.1.15,2013-05-08 05:56:00,
2013-05-08 01:00:00,56.9,50.8,29.87,South,169,2.0,2.0,80,0.00,,,0.00,Wunderground v.1.15,2013-05-08 06:00:00,
2013-05-08 01:02:00,57.1,50.6,29.87,SSE,148,2.0,3.0,79,0.00,,,0.00,Wunderground v.1.15,2013-05-08 06:02:00,
2013-05-08 01:04:00,57.4,50.9,29.87,SSE,159,3.0,3.0,79,0.00,,,0.00,Wunderground v.1.15,2013-05-08 06:04:00,
2013-05-08 01:05:00,57.6,51.1,29.86,SSE,150,2.0,3.0,79,0.00,,,0.00,Wunderground v.1.15,2013-05-08 06:05:00,
2013-05-08 01:12:00,58.0,51.2,29.87,SSE,155,2.0,3.0,78,0.00,,,0.00,Wunderground v.1.15,2013-05-08 06:12:00,
2013-05-08 01:14:00,58.1,50.9,29.87,SSE,158,2.0,3.0,77,0.00,,,0.00,Wunderground v.1.15,2013-05-08 06:14:00,
2013-05-08 01:16:00,58.2,51.0,29.87,SSE,156,2.0,3.0,77,0.00,,,0.00,Wunderground v.1.15,2013-05-08 06:16:00,
2013-05-08 01:20:00,58.4,51.2,29.87,South,173,2.0,3.0,77,0.00,,,0.00,Wunderground v.1.15,2013-05-08 06:20:00,
2013-05-08 01:25:00,58.7,51.2,29.87,SE,145,2.0,3.0,76,0.00,,,0.00,Wunderground v.1.15,2013-05-08 06:25:00,
2013-05-08 01:27:00,58.7,51.2,29.87,SSE,147,2.0,3.0,76,0.00,,,0.00,Wunderground v.1.15,2013-05-08 06:27:00,
2013-05-08 01:29:00,58.8,51.2,29.87,South,172,2.0,3.0,76,0.00,,,0.00,Wunderground v.1.15,2013-05-08 06:29:00,
2013-05-08 01:33:00,58.8,51.2,29.86,SSE,148,2.0,3.0,76,0.00,,,0.00,Wunderground v.1.15,2013-05-08 06:33:00,
2013-05-08 01:36:00,58.8,51.2,29.86,SSE,160,2.0,3.0,76,0.00,,,0.00,Wunderground v.1.15,2013-05-08 06:36:00,
2013-05-08 01:40:00,58.8,51.2,29.87,SSE,160,2.0,3.0,76,0.00,,,0.00,Wunderground v.1.15,2013-05-08 06:40:00,
2013-05-08 01:42:00,58.8,51.2,29.87,SSE,159,2.0,3.0,76,0.00,,,0.00,Wunderground v.1.15,2013-05-08 06:42:00,
2013-05-08 01:44:00,58.8,51.2,29.87,South,169,2.0,3.0,76,0.00,,,0.00,Wunderground v.1.15,2013-05-08 06:44:00,
2013-05-08 01:49:00,58.7,51.2,29.87,SE,142,2.0,3.0,76,0.00,,,0.00,Wunderground v.1.15,2013-05-08 06:49:00,
2013-05-08 01:51:00,58.7,51.5,29.87,SE,136,2.0,3.0,77,0.00,,,0.00,Wunderground v.1.15,2013-05-08 06:51:00,
2013-05-08 01:53:00,58.6,51.4,29.86,SE,135,2.0,3.0,77,0.00,,,0.00,Wunderground v.1.15,2013-05-08 06:53:00,
2013-05-08 01:56:00,58.5,51.3,29.86,SE,143,2.0,3.0,77,0.00,,,0.00,Wunderground v.1.15,2013-05-08 06:56:00,
2013-05-08 01:58:00,58.4,51.6,29.86,SE,141,2.0,3.0,78,0.00,,,0.00,Wunderground v.1.15,2013-05-08 06:58:00,
2013-05-08 02:00:00,58.3,51.5,29.86,SE,145,2.0,3.0,78,0.00,,,0.00,Wunderground v.1.15,2013-05-08 07:00:00,
2013-05-08 02:06:00,57.9,51.8,29.86,SSE,148,2.0,3.0,80,0.00,,,0.00,Wunderground v.1.15,2013-05-08 07:06:00,
2013-05-08 02:08:00,57.8,51.7,29.86,SSE,156,2.0,3.0,80,0.00,,,0.00,Wunderground v.1.15,2013-05-08 07:08:00,
2013-05-08 02:09:00,57.8,51.7,29.86,SE,145,2.0,2.0,80,0.00,,,0.00,Wunderground v.1.15,2013-05-08 07:09:00,
2013-05-08 02:13:00,57.7,51.2,29.86,SE,143,2.0,3.0,79,0.00,,,0.00,Wunderground v.1.15,2013-05-08 07:13:00,
2013-05-08 02:15:00,57.8,51.3,29.86,SE,142,2.0,3.0,79,0.00,,,0.00,Wunderground v.1.15,2013-05-08 07:15:00,
2013-05-08 02:18:00,57.8,51.0,29.86,SSE,148,2.0,3.0,78,0.00,,,0.00,Wunderground v.1.15,2013-05-08 07:18:00,
2013-05-08 02:20:00,57.9,51.1,29.86,SE,134,2.0,2.0,78,0.00,,,0.00,Wunderground v.1.15,2013-05-08 07:20:00,
2013-05-08 02:24:00,58.0,51.2,29.86,SE,139,2.0,3.0,78,0.00,,,0.00,Wunderground v.1.15,2013-05-08 07:24:00,
2013-05-08 02:26:00,58.0,51.2,29.86,SE,144,1.0,3.0,78,0.00,,,0.00,Wunderground v.1.15,2013-05-08 07:26:00,
2013-05-08 02:31:00,58.1,50.9,29.86,SW,214,1.0,3.0,77,0.00,,,0.00,Wunderground v.1.15,2013-05-08 07:31:00,
2013-05-08 02:33:00,58.2,50.7,29.86,SW,234,2.0,6.0,76,0.00,,,0.00,Wunderground v.1.15,2013-05-08 07:33:00,
2013-05-08 02:35:00,58.5,51.0,29.86,SW,224,3.0,6.0,76,0.00,,,0.00,Wunderground v.1.15,2013-05-08 07:35:00,
2013-05-08 02:37:00,58.6,51.1,29.86,South,191,3.0,6.0,76,0.00,,,0.00,Wunderground v.1.15,2013-05-08 07:37:00,
2013-05-08 02:40:00,58.7,51.2,29.86,South,191,4.0,4.0,76,0.00,,,0.00,Wunderground v.1.15,2013-05-08 07:40:00,
2013-05-08 02:42:00,58.8,50.9,29.86,SSW,203,4.0,6.0,75,0.00,,,0.00,Wunderground v.1.15,2013-05-08 07:42:00,
2013-05-08 02:46:00,58.8,51.2,29.86,SSW,212,4.0,6.0,76,0.00,,,0.00,Wunderground v.1.15,2013-05-08 07:46:00,
2013-05-08 02:48:00,58.7,51.2,29.86,SSW,212,4.0,6.0,76,0.00,,,0.00,Wunderground v.1.15,2013-05-08 07:48:00,
2013-05-08 02:50:00,58.6,51.1,29.86,SW,226,4.0,4.0,76,0.00,,,0.00,Wunderground v.1.15,2013-05-08 07:50:00,
2013-05-08 02:51:00,58.6,51.1,29.86,SW,219,4.0,4.0,76,0.00,,,0.00,Wunderground v.1.15,2013-05-08 07:51:00,
2013-05-08 02:53:00,58.5,51.3,29.86,SW,217,3.0,4.0,77,0.00,,,0.00,Wunderground v.1.15,2013-05-08 07:53:00,
2013-05-08 02:55:00,58.3,51.1,29.87,SSW,212,3.0,6.0,77,0.00,,,0.00,Wunderground v.1.15,2013-05-08 07:55:00,
2013-05-08 02:57:00,58.2,51.0,29.86,SSW,203,4.0,6.0,77,0.00,,,0.00,Wunderground v.1.15,2013-05-08 07:57:00,
2013-05-08 03:04:00,57.8,51.0,29.86,SSW,207,3.0,4.0,78,0.00,,,0.00,Wunderground v.1.15,2013-05-08 08:04:00,
2013-05-08 03:06:00,57.7,50.9,29.86,SW,231,3.0,4.0,78,0.00,,,0.00,Wunderground v.1.15,2013-05-08 08:06:00,
2013-05-08 03:08:00,57.6,50.8,29.86,SSW,205,3.0,4.0,78,0.00,,,0.00,Wunderground v.1.15,2013-05-08 08:08:00,
2013-05-08 03:12:00,57.4,50.6,29.86,SW,217,3.0,3.0,78,0.00,,,0.00,Wunderground v.1.15,2013-05-08 08:12:00,
2013-05-08 03:13:00,57.3,50.8,29.86,SW,215,2.0,3.0,79,0.00,,,0.00,Wunderground v.1.15,2013-05-08 08:13:00,
2013-05-08 03:15:00,57.2,50.7,29.86,SW,215,2.0,3.0,79,0.00,,,0.00,Wunderground v.1.15,2013-05-08 08:15:00,
2013-05-08 03:19:00,57.0,50.5,29.86,SW,235,2.0,3.0,79,0.00,,,0.00,Wunderground v.1.15,2013-05-08 08:19:00,
2013-05-08 03:22:00,56.9,50.5,29.86,SW,220,2.0,3.0,79,0.00,,,0.00,Wunderground v.1.15,2013-05-08 08:22:00,
2013-05-08 03:24:00,56.8,50.4,29.87,SW,221,2.0,3.0,79,0.00,,,0.00,Wunderground v.1.15,2013-05-08 08:24:00,
2013-05-08 03:28:00,56.7,50.6,29.87,SW,222,2.0,3.0,80,0.00,,,0.00,Wunderground v.1.15,2013-05-08 08:28:00,
2013-05-08 03:33:00,56.6,50.5,29.87,SW,218,3.0,3.0,80,0.00,,,0.00,Wunderground v.1.15,2013-05-08 08:33:00,
2013-05-08 03:37:00,56.4,50.3,29.87,SW,224,3.0,3.0,80,0.00,,,0.00,Wunderground v.1.15,2013-05-08 08:37:00,
2013-05-08 03:39:00,56.4,50.3,29.87,SW,222,3.0,3.0,80,0.00,,,0.00,Wunderground v.1.15,2013-05-08 08:39:00,
2013-05-08 03:41:00,56.3,50.2,29.87,SW,228,2.0,3.0,80,0.00,,,0.00,Wunderground v.1.15,2013-05-08 08:41:00,
2013-05-08 03:46:00,56.1,50.3,29.87,SW,228,2.0,3.0,81,0.00,,,0.00,Wunderground v.1.15,2013-05-08 08:46:00,
2013-05-08 03:48:00,56.1,50.3,29.87,SW,219,2.0,3.0,81,0.00,,,0.00,Wunderground v.1.15,2013-05-08 08:48:00,
2013-05-08 03:52:00,55.9,50.2,29.87,SW,224,2.0,3.0,81,0.00,,,0.00,Wunderground v.1.15,2013-05-08 08:52:00,
2013-05-08 03:54:00,55.8,50.4,29.87,SW,222,2.0,3.0,82,0.00,,,0.00,Wunderground v.1.15,2013-05-08 08:54:00,
2013-05-08 03:55:00,55.7,50.3,29.87,SW,221,1.0,3.0,82,0.00,,,0.00,Wunderground v.1.15,2013-05-08 08:55:00,
2013-05-08 03:57:00,55.7,50.0,29.87,SW,225,1.0,3.0,81,0.00,,,0.00,Wunderground v.1.15,2013-05-08 08:57:00,
2013-05-08 03:59:00,55.7,50.3,29.87,SW,226,1.0,3.0,82,0.00,,,0.00,Wunderground v.1.15,2013-05-08 08:59:00,
2013-05-08 04:06:00,55.6,50.2,29.87,SW,226,1.0,3.0,82,0.00,,,0.00,Wunderground v.1.15,2013-05-08 09:06:00,
2013-05-08 04:08:00,55.6,50.2,29.87,SW,226,1.0,3.0,82,0.00,,,0.00,Wunderground v.1.15,2013-05-08 09:08:00,
2013-05-08 04:10:00,55.5,50.1,29.87,SW,226,1.0,1.0,82,0.00,,,0.00,Wunderground v.1.15,2013-05-08 09:10:00,
2013-05-08 04:12:00,55.4,50.0,29.87,SW,226,0.0,3.0,82,0.00,,,0.00,Wunderground v.1.15,2013-05-08 09:12:00,
2013-05-08 04:14:00,55.3,49.9,29.87,SW,226,0.0,3.0,82,0.00,,,0.00,Wunderground v.1.15,2013-05-08 09:14:00,
2013-05-08 04:19:00,54.9,49.5,29.86,SW,226,0.0,3.0,82,0.00,,,0.00,Wunderground v.1.15,2013-05-08 09:19:00,
2013-05-08 04:21:00,54.7,49.6,29.86,SW,226,0.0,3.0,83,0.00,,,0.00,Wunderground v.1.15,2013-05-08 09:21:00,
2013-05-08 04:23:00,54.7,49.6,29.86,SW,226,0.0,3.0,83,0.00,,,0.00,Wunderground v.1.15,2013-05-08 09:23:00,
2013-05-08 04:28:00,54.5,49.4,29.87,SW,226,0.0,3.0,83,0.00,,,0.00,Wunderground v.1.15,2013-05-08 09:28:00,
2013-05-08 04:30:00,54.5,49.4,29.87,SW,227,0.0,3.0,83,0.00,,,0.00,Wunderground v.1.15,2013-05-08 09:30:00,
2013-05-08 04:32:00,54.5,49.4,29.86,SW,226,0.0,3.0,83,0.00,,,0.00,Wunderground v.1.15,2013-05-08 09:32:00,
2013-05-08 04:36:00,54.5,49.4,29.87,SW,226,0.0,3.0,83,0.00,,,0.00,Wunderground v.1.15,2013-05-08 09:36:00,
2013-05-08 04:37:00,54.4,49.3,29.87,SW,226,0.0,3.0,83,0.00,,,0.00,Wunderground v.1.15,2013-05-08 09:37:00,
2013-05-08 04:39:00,54.4,49.3,29.86,SW,226,0.0,3.0,83,0.00,,,0.00,Wunderground v.1.15,2013-05-08 09:39:00,
2013-05-08 04:41:00,54.4,49.3,29.86,SW,226,0.0,3.0,83,0.00,,,0.00,Wunderground v.1.15,2013-05-08 09:41:00,
2013-05-08 04:43:00,54.3,49.2,29.87,SW,226,0.0,3.0,83,0.00,,,0.00,Wunderground v.1.15,2013-05-08 09:43:00,
2013-05-08 04:50:00,54.5,49.4,29.87,SW,226,0.0,3.0,83,0.00,,,0.00,Wunderground v.1.15,2013-05-08 09:50:00,
2013-05-08 04:52:00,54.5,49.8,29.87,SW,226,0.0,3.0,84,0.00,,,0.00,Wunderground v.1.15,2013-05-08 09:52:00,
2013-05-08 04:54:00,54.5,49.8,29.87,SW,226,0.0,3.0,84,0.00,,,0.00,Wunderground v.1.15,2013-05-08 09:54:00,
2013-05-08 04:56:00,54.5,49.8,29.87,SW,226,0.0,3.0,84,0.00,,,0.00,Wunderground v.1.15,2013-05-08 09:56:00,
2013-05-08 05:01:00,54.5,49.8,29.87,SW,226,0.0,3.0,84,0.00,,,0.00,Wunderground v.1.15,2013-05-08 10:01:00,
2013-05-08 05:03:00,54.5,49.8,29.88,SW,226,0.0,3.0,84,0.00,,,0.00,Wunderground v.1.15,2013-05-08 10:03:00,
2013-05-08 05:08:00,54.5,49.8,29.88,SW,224,0.0,3.0,84,0.00,,,0.00,Wunderground v.1.15,2013-05-08 10:08:00,
2013-05-08 05:12:00,54.5,49.8,29.87,SW,225,0.0,3.0,84,0.00,,,0.00,Wunderground v.1.15,2013-05-08 10:12:00,
2013-05-08 05:14:00,54.5,49.8,29.88,SW,225,0.0,3.0,84,0.00,,,0.00,Wunderground v.1.15,2013-05-08 10:14:00,
2013-05-08 05:16:00,54.5,49.8,29.87,SW,225,0.0,3.0,84,0.00,,,0.00,Wunderground v.1.15,2013-05-08 10:16:00,
2013-05-08 05:18:00,54.5,49.8,29.87,SW,225,0.0,3.0,84,0.00,,,0.00,Wunderground v.1.15,2013-05-08 10:18:00,
2013-05-08 05:21:00,54.3,49.6,29.87,SW,225,0.0,3.0,84,0.00,,,0.00,Wunderground v.1.15,2013-05-08 10:21:00,
2013-05-08 05:23:00,54.2,49.5,29.87,SW,225,0.0,3.0,84,0.00,,,0.00,Wunderground v.1.15,2013-05-08 10:23:00,
2013-05-08 05:27:00,54.1,49.4,29.87,West,274,0.0,3.0,84,0.00,,,0.00,Wunderground v.1.15,2013-05-08 10:27:00,
2013-05-08 05:30:00,54.0,49.3,29.87,West,273,0.0,3.0,84,0.00,,,0.00,Wunderground v.1.15,2013-05-08 10:30:00,
2013-05-08 05:32:00,53.9,49.5,29.87,West,273,0.0,3.0,85,0.00,,,0.00,Wunderground v.1.15,2013-05-08 10:32:00,
2013-05-08 05:34:00,53.8,49.4,29.88,West,273,0.0,3.0,85,0.00,,,0.00,Wunderground v.1.15,2013-05-08 10:34:00,
2013-05-08 05:36:00,53.7,49.3,29.88,West,274,0.0,3.0,85,0.00,,,0.00,Wunderground v.1.15,2013-05-08 10:36:00,
2013-05-08 05:38:00,53.6,49.2,29.88,West,273,0.0,3.0,85,0.00,,,0.00,Wunderground v.1.15,2013-05-08 10:38:00,
2013-05-08 05:41:00,53.8,49.7,29.88,West,273,0.0,3.0,86,0.00,,,0.00,Wunderground v.1.15,2013-05-08 10:41:00,
2013-05-08 05:43:00,53.9,49.5,29.87,West,273,0.0,3.0,85,0.00,,,0.00,Wunderground v.1.15,2013-05-08 10:43:00,
2013-05-08 05:47:00,54.3,50.2,29.87,WNW,287,0.0,3.0,86,0.00,,,0.00,Wunderground v.1.15,2013-05-08 10:47:00,
2013-05-08 05:49:00,54.3,50.2,29.87,North,6,0.0,3.0,86,0.00,,,0.00,Wunderground v.1.15,2013-05-08 10:49:00,
2013-05-08 05:52:00,54.3,50.2,29.88,North,6,0.0,3.0,86,0.00,,,0.00,Wunderground v.1.15,2013-05-08 10:52:00,
2013-05-08 05:54:00,54.3,50.2,29.88,North,6,0.0,3.0,86,0.00,,,0.00,Wunderground v.1.15,2013-05-08 10:54:00,
2013-05-08 05:58:00,54.3,50.2,29.88,North,8,0.0,3.0,86,0.00,,,0.00,Wunderground v.1.15,2013-05-08 10:58:00,
2013-05-08 06:03:00,54.5,50.7,29.87,North,8,0.0,3.0,87,0.00,,,0.00,Wunderground v.1.15,2013-05-08 11:03:00,
2013-05-08 06:05:00,54.6,51.1,29.87,NNE,30,0.0,3.0,88,0.00,,,0.00,Wunderground v.1.15,2013-05-08 11:05:00,
2013-05-08 06:07:00,54.7,51.2,29.87,NNE,30,1.0,3.0,88,0.00,,,0.00,Wunderground v.1.15,2013-05-08 11:07:00,
2013-05-08 06:09:00,54.9,51.4,29.87,NNE,28,1.0,3.0,88,0.00,,,0.00,Wunderground v.1.15,2013-05-08 11:09:00,
2013-05-08 06:12:00,54.9,51.4,29.87,NNE,29,1.0,3.0,88,0.00,,,0.00,Wunderground v.1.15,2013-05-08 11:12:00,
2013-05-08 06:16:00,54.8,51.3,29.87,NE,34,2.0,3.0,88,0.00,,,0.00,Wunderground v.1.15,2013-05-08 11:16:00,
2013-05-08 06:18:00,54.8,51.3,29.87,NE,34,2.0,3.0,88,0.00,,,0.00,Wunderground v.1.15,2013-05-08 11:18:00,
2013-05-08 06:20:00,54.9,51.4,29.87,NE,34,2.0,3.0,88,0.00,,,0.00,Wunderground v.1.15,2013-05-08 11:20:00,
2013-05-08 06:22:00,55.0,51.5,29.87,NE,34,2.0,3.0,88,0.00,,,0.00,Wunderground v.1.15,2013-05-08 11:22:00,
2013-05-08 06:24:00,55.1,51.3,29.87,NE,34,2.0,3.0,87,0.00,,,0.00,Wunderground v.1.15,2013-05-08 11:24:00,
2013-05-08 06:27:00,55.1,51.3,29.87,NE,34,1.0,3.0,87,0.00,,,0.00,Wunderground v.1.15,2013-05-08 11:27:00,
2013-05-08 06:29:00,55.0,51.2,29.87,NE,34,1.0,3.0,87,0.00,,,0.00,Wunderground v.1.15,2013-05-08 11:29:00,
2013-05-08 06:34:00,54.8,51.3,29.88,NNE,33,1.0,3.0,88,0.00,,,0.00,Wunderground v.1.15,2013-05-08 11:34:00,
2013-05-08 06:36:00,54.8,51.3,29.88,NNE,32,1.0,3.0,88,0.00,,,0.00,Wunderground v.1.15,2013-05-08 11:36:00,
2013-05-08 06:40:00,54.7,51.5,29.88,NNE,32,1.0,1.0,89,0.00,,,0.00,Wunderground v.1.15,2013-05-08 11:40:00,
2013-05-08 06:42:00,54.6,51.4,29.88,NNE,20,1.0,3.0,89,0.00,,,0.00,Wunderground v.1.15,2013-05-08 11:42:00,
2013-05-08 06:44:00,54.6,51.4,29.88,NNE,20,1.0,3.0,89,0.00,,,0.00,Wunderground v.1.15,2013-05-08 11:44:00,
2013-05-08 06:45:00,54.5,51.3,29.87,NNE,20,0.0,3.0,89,0.00,,,0.00,Wunderground v.1.15,2013-05-08 11:45:00,
2013-05-08 06:49:00,54.4,51.2,29.87,NNE,20,1.0,3.0,89,0.00,,,0.00,Wunderground v.1.15,2013-05-08 11:49:00,
2013-05-08 06:51:00,54.4,51.5,29.88,North,10,1.0,3.0,90,0.00,,,0.00,Wunderground v.1.15,2013-05-08 11:51:00,
2013-05-08 06:53:00,54.4,51.5,29.87,North,8,1.0,3.0,90,0.00,,,0.00,Wunderground v.1.15,2013-05-08 11:53:00,
2013-05-08 06:56:00,54.6,51.7,29.87,NNE,12,2.0,3.0,90,0.00,,,0.00,Wunderground v.1.15,2013-05-08 11:56:00,
2013-05-08 06:58:00,54.7,52.1,29.87,NNE,18,2.0,3.0,91,0.00,,,0.00,Wunderground v.1.15,2013-05-08 11:58:00,
2013-05-08 07:00:00,54.9,52.3,29.87,NNE,27,2.0,3.0,91,0.00,,,0.00,Wunderground v.1.15,2013-05-08 12:00:00,
2013-05-08 07:02:00,55.0,52.4,29.87,NNE,27,2.0,3.0,91,0.00,,,0.00,Wunderground v.1.15,2013-05-08 12:02:00,
2013-05-08 07:04:00,55.1,52.5,29.88,NNE,25,2.0,3.0,91,0.00,,,0.00,Wunderground v.1.15,2013-05-08 12:04:00,
2013-05-08 07:07:00,55.3,52.7,29.88,NNW,340,2.0,3.0,91,0.00,,,0.00,Wunderground v.1.15,2013-05-08 12:07:00,
2013-05-08 07:09:00,55.3,52.7,29.88,NNW,335,2.0,2.0,91,0.00,,,0.00,Wunderground v.1.15,2013-05-08 12:09:00,
2013-05-08 07:11:00,55.4,52.8,29.88,NNW,335,2.0,3.0,91,0.00,,,0.00,Wunderground v.1.15,2013-05-08 12:11:00,
2013-05-08 07:13:00,55.5,52.9,29.88,NNW,335,1.0,3.0,91,0.00,,,0.00,Wunderground v.1.15,2013-05-08 12:13:00,
2013-05-08 07:16:00,55.5,52.9,29.88,NNW,335,1.0,3.0,91,0.00,,,0.00,Wunderground v.1.15,2013-05-08 12:16:00,
2013-05-08 07:18:00,55.6,53.0,29.88,NNW,335,0.0,3.0,91,0.00,,,0.00,Wunderground v.1.15,2013-05-08 12:18:00,
2013-05-08 07:20:00,55.7,53.1,29.88,NNW,335,0.0,3.0,91,0.00,,,0.00,Wunderground v.1.15,2013-05-08 12:20:00,
2013-05-08 07:24:00,55.7,53.1,29.88,NNW,335,0.0,3.0,91,0.00,,,0.00,Wunderground v.1.15,2013-05-08 12:24:00,
2013-05-08 07:26:00,55.8,53.2,29.88,NNW,336,0.0,3.0,91,0.00,,,0.00,Wunderground v.1.15,2013-05-08 12:26:00,
2013-05-08 07:29:00,55.9,53.3,29.88,NNW,337,1.0,1.0,91,0.00,,,0.00,Wunderground v.1.15,2013-05-08 12:29:00,
2013-05-08 07:33:00,56.1,53.5,29.88,NNW,339,1.0,3.0,91,0.00,,,0.00,Wunderground v.1.15,2013-05-08 12:33:00,
2013-05-08 07:35:00,56.1,53.5,29.88,NNE,27,1.0,3.0,91,0.00,,,0.00,Wunderground v.1.15,2013-05-08 12:35:00,
2013-05-08 07:38:00,56.3,53.7,29.88,NNE,25,1.0,3.0,91,0.00,,,0.00,Wunderground v.1.15,2013-05-08 12:38:00,
2013-05-08 07:40:00,56.3,53.7,29.88,NNE,25,2.0,3.0,91,0.00,,,0.00,Wunderground v.1.15,2013-05-08 12:40:00,
2013-05-08 07:42:00,56.4,53.5,29.88,NNE,22,2.0,3.0,90,0.00,,,0.00,Wunderground v.1.15,2013-05-08 12:42:00,
2013-05-08 07:44:00,56.5,53.6,29.88,NNE,20,2.0,3.0,90,0.00,,,0.00,Wunderground v.1.15,2013-05-08 12:44:00,
2013-05-08 07:49:00,56.6,53.7,29.88,NNE,22,2.0,2.0,90,0.00,,,0.00,Wunderground v.1.15,2013-05-08 12:49:00,
2013-05-08 07:51:00,56.7,53.8,29.88,NNE,22,2.0,3.0,90,0.00,,,0.00,Wunderground v.1.15,2013-05-08 12:51:00,
2013-05-08 07:53:00,56.8,53.9,29.88,NNE,30,2.0,3.0,90,0.00,,,0.00,Wunderground v.1.15,2013-05-08 12:53:00,
2013-05-08 07:55:00,56.8,53.9,29.88,NE,37,2.0,3.0,90,0.00,,,0.00,Wunderground v.1.15,2013-05-08 12:55:00,
2013-05-08 07:57:00,56.9,54.0,29.88,NE,40,2.0,3.0,90,0.00,,,0.00,Wunderground v.1.15,2013-05-08 12:57:00,
2013-05-08 08:02:00,57.0,54.1,29.88,NE,41,2.0,3.0,90,0.00,,,0.00,Wunderground v.1.15,2013-05-08 13:02:00,
2013-05-08 08:04:00,57.1,53.9,29.88,NE,41,2.0,3.0,89,0.00,,,0.00,Wunderground v.1.15,2013-05-08 13:04:00,
2013-05-08 08:06:00,57.1,53.9,29.88,NE,41,1.0,3.0,89,0.00,,,0.00,Wunderground v.1.15,2013-05-08 13:06:00,
2013-05-08 08:10:00,57.2,54.0,29.88,ENE,73,1.0,3.0,89,0.00,,,0.00,Wunderground v.1.15,2013-05-08 13:10:00,
2013-05-08 08:11:00,57.2,54.0,29.88,ENE,61,1.0,3.0,89,0.00,,,0.00,Wunderground v.1.15,2013-05-08 13:11:00,
2013-05-08 08:13:00,57.2,54.0,29.88,NE,43,1.0,3.0,89,0.00,,,0.00,Wunderground v.1.15,2013-05-08 13:13:00,
2013-05-08 08:20:00,57.3,54.1,29.88,ENE,65,2.0,3.0,89,0.00,,,0.00,Wunderground v.1.15,2013-05-08 13:20:00,
2013-05-08 08:24:00,57.4,54.2,29.88,NE,45,2.0,4.0,89,0.00,,,0.00,Wunderground v.1.15,2013-05-08 13:24:00,
2013-05-08 08:26:00,57.4,54.2,29.88,NE,46,2.0,4.0,89,0.00,,,0.00,Wunderground v.1.15,2013-05-08 13:26:00,
2013-05-08 08:28:00,57.4,54.2,29.88,ENE,63,2.0,4.0,89,0.00,,,0.00,Wunderground v.1.15,2013-05-08 13:28:00,
2013-05-08 08:32:00,57.5,54.0,29.88,NE,34,2.0,3.0,88,0.00,,,0.00,Wunderground v.1.15,2013-05-08 13:32:00,
2013-05-08 08:33:00,57.5,54.3,29.88,ENE,65,2.0,3.0,89,0.00,,,0.00,Wunderground v.1.15,2013-05-08 13:33:00,
2013-05-08 08:37:00,57.6,54.4,29.88,ENE,68,2.0,3.0,89,0.00,,,0.00,Wunderground v.1.15,2013-05-08 13:37:00,
2013-05-08 08:39:00,57.7,54.5,29.88,East,82,2.0,2.0,89,0.00,,,0.00,Wunderground v.1.15,2013-05-08 13:39:00,
2013-05-08 08:42:00,57.8,54.6,29.88,ENE,67,2.0,3.0,89,0.00,,,0.00,Wunderground v.1.15,2013-05-08 13:42:00,
2013-05-08 08:44:00,57.9,54.7,29.88,ENE,61,2.0,3.0,89,0.00,,,0.00,Wunderground v.1.15,2013-05-08 13:44:00,
2013-05-08 08:48:00,58.1,54.6,29.88,NNE,28,2.0,3.0,88,0.00,,,0.00,Wunderground v.1.15,2013-05-08 13:48:00,
2013-05-08 08:53:00,58.4,54.9,29.88,ENE,60,2.0,3.0,88,0.00,,,0.00,Wunderground v.1.15,2013-05-08 13:53:00,
2013-05-08 08:55:00,58.5,55.0,29.88,ENE,70,1.0,3.0,88,0.00,,,0.00,Wunderground v.1.15,2013-05-08 13:55:00,
2013-05-08 08:57:00,58.5,54.6,29.88,NE,46,1.0,3.0,87,0.00,,,0.00,Wunderground v.1.15,2013-05-08 13:57:00,
2013-05-08 08:59:00,58.7,54.8,29.88,NE,51,2.0,3.0,87,0.00,,,0.00,Wunderground v.1.15,2013-05-08 13:59:00,
2013-05-08 09:01:00,58.7,54.8,29.88,ENE,65,2.0,4.0,87,0.00,,,0.00,Wunderground v.1.15,2013-05-08 14:01:00,
2013-05-08 09:06:00,59.0,55.1,29.88,ENE,77,3.0,4.0,87,0.00,,,0.00,Wunderground v.1.15,2013-05-08 14:06:00,
2013-05-08 09:08:00,59.1,54.9,29.88,East,87,2.0,4.0,86,0.00,,,0.00,Wunderground v.1.15,2013-05-08 14:08:00,
2013-05-08 09:10:00,59.2,55.0,29.88,ENE,78,2.0,2.0,86,0.00,,,0.00,Wunderground v.1.15,2013-05-08 14:10:00,
2013-05-08 09:12:00,59.2,54.7,29.88,NE,45,2.0,3.0,85,0.00,,,0.00,Wunderground v.1.15,2013-05-08 14:12:00,
2013-05-08 09:14:00,59.2,54.7,29.88,ENE,77,2.0,3.0,85,0.00,,,0.00,Wunderground v.1.15,2013-05-08 14:14:00,
2013-05-08 09:17:00,59.3,55.1,29.88,East,98,1.0,3.0,86,0.00,,,0.00,Wunderground v.1.15,2013-05-08 14:17:00,
2013-05-08 09:19:00,59.3,55.1,29.88,ESE,116,2.0,3.0,86,0.00,,,0.00,Wunderground v.1.15,2013-05-08 14:19:00,
2013-05-08 09:26:00,59.6,55.4,29.88,ENE,63,1.0,3.0,86,0.00,,,0.00,Wunderground v.1.15,2013-05-08 14:26:00,
2013-05-08 09:28:00,59.6,55.1,29.88,SSE,149,2.0,3.0,85,0.00,,,0.00,Wunderground v.1.15,2013-05-08 14:28:00,
2013-05-08 09:32:00,59.9,55.4,29.88,ENE,66,1.0,3.0,85,0.00,,,0.00,Wunderground v.1.15,2013-05-08 14:32:00,
2013-05-08 09:34:00,60.0,55.5,29.88,ENE,64,1.0,3.0,85,0.00,,,0.00,Wunderground v.1.15,2013-05-08 14:34:00,
2013-05-08 09:37:00,60.2,55.0,29.87,ENE,58,2.0,5.0,83,0.00,,,0.00,Wunderground v.1.15,2013-05-08 14:37:00,
2013-05-08 09:40:00,60.3,55.1,29.87,ENE,61,2.0,3.0,83,0.00,,,0.00,Wunderground v.1.15,2013-05-08 14:40:00,
2013-05-08 09:41:00,60.3,54.8,29.87,ENE,58,3.0,4.0,82,0.00,,,0.00,Wunderground v.1.15,2013-05-08 14:41:00,
2013-05-08 09:43:00,60.5,55.0,29.87,NE,42,3.0,4.0,82,0.00,,,0.00,Wunderground v.1.15,2013-05-08 14:43:00,
2013-05-08 09:46:00,60.6,55.1,29.87,NE,48,3.0,4.0,82,0.00,,,0.00,Wunderground v.1.15,2013-05-08 14:46:00,
2013-05-08 09:48:00,60.8,55.3,29.87,ENE,60,2.0,4.0,82,0.00,,,0.00,Wunderground v.1.15,2013-05-08 14:48:00,
2013-05-08 09:50:00,60.9,55.0,29.87,ENE,75,2.0,3.0,81,0.00,,,0.00,Wunderground v.1.15,2013-05-08 14:50:00,
2013-05-08 09:52:00,61.1,55.2,29.88,NE,49,2.0,3.0,81,0.00,,,0.00,Wunderground v.1.15,2013-05-08 14:52:00,
2013-05-08 09:54:00,61.3,55.1,29.88,East,86,2.0,3.0,80,0.00,,,0.00,Wunderground v.1.15,2013-05-08 14:54:00,
2013-05-08 09:56:00,61.4,55.2,29.87,East,80,2.0,3.0,80,0.00,,,0.00,Wunderground v.1.15,2013-05-08 14:56:00,
2013-05-08 09:58:00,61.6,55.0,29.87,ENE,72,2.0,3.0,79,0.00,,,0.00,Wunderground v.1.15,2013-05-08 14:58:00,
2013-05-08 10:00:00,61.9,55.3,29.87,ENE,76,1.0,3.0,79,0.00,,,0.00,Wunderground v.1.15,2013-05-08 15:00:00,
2013-05-08 10:01:00,62.2,55.6,29.87,NE,46,1.0,3.0,79,0.00,,,0.00,Wunderground v.1.15,2013-05-08 15:01:00,
2013-05-08 10:03:00,62.4,55.4,29.87,ENE,75,1.0,3.0,78,0.00,,,0.00,Wunderground v.1.15,2013-05-08 15:03:00,
2013-05-08 10:08:00,62.8,55.8,29.87,East,93,1.0,3.0,78,0.00,,,0.00,Wunderground v.1.15,2013-05-08 15:08:00,
2013-05-08 10:10:00,63.0,55.7,29.88,North,1,1.0,3.0,77,0.00,,,0.00,Wunderground v.1.15,2013-05-08 15:10:00,
2013-05-08 10:12:00,63.1,55.8,29.88,ENE,73,1.0,3.0,77,0.00,,,0.00,Wunderground v.1.15,2013-05-08 15:12:00,
2013-05-08 10:16:00,63.0,54.9,29.88,SE,141,2.0,3.0,75,0.00,,,0.00,Wunderground v.1.15,2013-05-08 15:16:00,
2013-05-08 10:18:00,63.0,55.3,29.88,NE,40,2.0,3.0,76,0.00,,,0.00,Wunderground v.1.15,2013-05-08 15:18:00,
2013-05-08 10:23:00,63.0,54.9,29.88,NNW,343,1.0,3.0,75,0.00,,,0.00,Wunderground v.1.15,2013-05-08 15:23:00,
2013-05-08 10:28:00,63.2,54.8,29.88,ESE,122,1.0,3.0,74,0.00,,,0.00,Wunderground v.1.15,2013-05-08 15:28:00,
2013-05-08 10:30:00,63.2,54.8,29.88,ENE,76,1.0,1.0,74,0.00,,,0.00,Wunderground v.1.15,2013-05-08 15:30:00,
2013-05-08 10:32:00,63.3,54.9,29.88,West,269,1.0,3.0,74,0.00,,,0.00,Wunderground v.1.15,2013-05-08 15:32:00,
2013-05-08 10:34:00,63.5,55.1,29.88,NNE,30,1.0,3.0,74,0.00,,,0.00,Wunderground v.1.15,2013-05-08 15:34:00,
2013-05-08 10:40:00,64.1,55.6,29.88,SW,217,1.0,3.0,74,0.00,,,0.00,Wunderground v.1.15,2013-05-08 15:40:00,
2013-05-08 10:42:00,64.2,55.7,29.88,SW,225,1.0,3.0,74,0.00,,,0.00,Wunderground v.1.15,2013-05-08 15:42:00,
2013-05-08 10:44:00,64.3,55.5,29.88,North,352,1.0,3.0,73,0.00,,,0.00,Wunderground v.1.15,2013-05-08 15:44:00,
2013-05-08 10:45:00,64.4,55.2,29.88,SSW,205,2.0,3.0,72,0.00,,,0.00,Wunderground v.1.15,2013-05-08 15:45:00,
2013-05-08 10:50:00,64.8,55.2,29.88,South,191,2.0,3.0,71,0.00,,,0.00,Wunderground v.1.15,2013-05-08 15:50:00,
2013-05-08 10:52:00,65.0,55.0,29.88,SE,145,2.0,3.0,70,0.00,,,0.00,Wunderground v.1.15,2013-05-08 15:52:00,
2013-05-08 10:56:00,65.0,55.4,29.88,South,185,2.0,3.0,71,0.00,,,0.00,Wunderground v.1.15,2013-05-08 15:56:00,
2013-05-08 10:58:00,65.1,54.7,29.88,SSE,163,2.0,3.0,69,0.00,,,0.00,Wunderground v.1.15,2013-05-08 15:58:00,
2013-05-08 11:00:00,65.4,55.0,29.88,ENE,62,2.0,3.0,69,0.00,,,0.00,Wunderground v.1.15,2013-05-08 16:00:00,
2013-05-08 11:02:00,65.5,54.7,29.88,SSE,157,2.0,4.0,68,0.00,,,0.00,Wunderground v.1.15,2013-05-08 16:02:00,
2013-05-08 11:04:00,65.6,54.8,29.88,SE,143,3.0,4.0,68,0.00,,,0.00,Wunderground v.1.15,2013-05-08 16:04:00,
2013-05-08 11:09:00,65.6,54.3,29.88,SSW,194,4.0,4.0,67,0.00,,,0.00,Wunderground v.1.15,2013-05-08 16:09:00,
2013-05-08 11:11:00,65.7,54.4,29.87,SW,229,4.0,4.0,67,0.00,,,0.00,Wunderground v.1.15,2013-05-08 16:11:00,
2013-05-08 11:13:00,65.9,54.6,29.88,SE,141,4.0,4.0,67,0.00,,,0.00,Wunderground v.1.15,2013-05-08 16:13:00,
2013-05-08 11:16:00,65.9,54.6,29.88,SE,131,3.0,5.0,67,0.00,,,0.00,Wunderground v.1.15,2013-05-08 16:16:00,
2013-05-08 11:18:00,65.9,54.6,29.87,SE,137,3.0,5.0,67,0.00,,,0.00,Wunderground v.1.15,2013-05-08 16:18:00,
2013-05-08 11:20:00,65.8,54.1,29.87,SE,143,3.0,6.0,66,0.00,,,0.00,Wunderground v.1.15,2013-05-08 16:20:00,
2013-05-08 11:26:00,66.2,54.5,29.87,SE,131,4.0,6.0,66,0.00,,,0.00,Wunderground v.1.15,2013-05-08 16:26:00,
2013-05-08 11:27:00,66.3,54.2,29.87,SE,128,5.0,6.0,65,0.00,,,0.00,Wunderground v.1.15,2013-05-08 16:27:00,
2013-05-08 11:29:00,66.1,54.0,29.87,SSE,158,5.0,6.0,65,0.00,,,0.00,Wunderground v.1.15,2013-05-08 16:29:00,
2013-05-08 11:31:00,66.2,54.5,29.87,SE,145,5.0,6.0,66,0.00,,,0.00,Wunderground v.1.15,2013-05-08 16:31:00,
2013-05-08 11:33:00,66.1,54.4,29.87,South,177,5.0,6.0,66,0.00,,,0.00,Wunderground v.1.15,2013-05-08 16:33:00,
2013-05-08 11:36:00,66.1,54.4,29.87,SE,139,4.0,6.0,66,0.00,,,0.00,Wunderground v.1.15,2013-05-08 16:36:00,
2013-05-08 11:40:00,66.2,54.1,29.87,SE,143,4.0,4.0,65,0.00,,,0.00,Wunderground v.1.15,2013-05-08 16:40:00,
2013-05-08 11:42:00,66.2,54.1,29.87,SE,134,4.0,4.0,65,0.00,,,0.00,Wunderground v.1.15,2013-05-08 16:42:00,
2013-05-08 11:46:00,66.0,54.3,29.87,SE,143,4.0,4.0,66,0.00,,,0.00,Wunderground v.1.15,2013-05-08 16:46:00,
2013-05-08 11:49:00,65.6,53.9,29.87,SE,131,4.0,5.0,66,0.00,,,0.00,Wunderground v.1.15,2013-05-08 16:49:00,
2013-05-08 11:55:00,65.6,53.5,29.87,SE,135,5.0,6.0,65,0.00,,,0.00,Wunderground v.1.15,2013-05-08 16:55:00,
2013-05-08 11:58:00,65.7,54.0,29.87,SSE,153,5.0,6.0,66,0.00,,,0.00,Wunderground v.1.15,2013-05-08 16:58:00,
2013-05-08 12:02:00,66.2,54.5,29.87,ESE,115,4.0,6.0,66,0.00,,,0.00,Wunderground v.1.15,2013-05-08 17:02:00,
2013-05-08 12:04:00,66.3,53.8,29.86,SE,139,4.0,6.0,64,0.00,,,0.00,Wunderground v.1.15,2013-05-08 17:04:00,
2013-05-08 12:08:00,66.6,53.6,29.86,SE,131,4.0,6.0,63,0.00,,,0.00,Wunderground v.1.15,2013-05-08 17:08:00,
2013-05-08 12:16:00,67.3,53.8,29.86,SE,129,5.0,7.0,62,0.00,,,0.00,Wunderground v.1.15,2013-05-08 17:16:00,
2013-05-08 12:18:00,67.5,54.0,29.86,SE,128,5.0,7.0,62,0.00,,,0.00,Wunderground v.1.15,2013-05-08 17:18:00,
2013-05-08 12:20:00,67.5,54.5,29.86,SE,139,5.0,5.0,63,0.00,,,0.00,Wunderground v.1.15,2013-05-08 17:20:00,
2013-05-08 12:22:00,67.5,54.5,29.86,SE,141,5.0,5.0,63,0.00,,,0.00,Wunderground v.1.15,2013-05-08 17:22:00,
2013-05-08 12:25:00,67.7,53.8,29.86,SE,128,5.0,5.0,61,0.00,,,0.00,Wunderground v.1.15,2013-05-08 17:25:00,
2013-05-08 12:28:00,68.0,54.0,29.86,SSE,156,5.0,5.0,61,0.00,,,0.00,Wunderground v.1.15,2013-05-08 17:28:00,
2013-05-08 12:30:00,68.3,54.8,29.86,SE,136,5.0,5.0,62,0.00,,,0.00,Wunderground v.1.15,2013-05-08 17:30:00,
2013-05-08 12:32:00,68.4,54.9,29.86,SSE,151,5.0,6.0,62,0.00,,,0.00,Wunderground v.1.15,2013-05-08 17:32:00,
2013-05-08 12:36:00,68.9,54.9,29.86,SSE,153,5.0,6.0,61,0.00,,,0.00,Wunderground v.1.15,2013-05-08 17:36:00,
2013-05-08 12:38:00,69.2,54.3,29.86,SE,136,5.0,6.0,59,0.00,,,0.00,Wunderground v.1.15,2013-05-08 17:38:00,
2013-05-08 12:40:00,69.3,54.4,29.86,SSE,150,6.0,9.0,59,0.00,,,0.00,Wunderground v.1.15,2013-05-08 17:40:00,
2013-05-08 12:44:00,69.1,53.7,29.86,SSE,166,7.0,10.0,58,0.00,,,0.00,Wunderground v.1.15,2013-05-08 17:44:00,
2013-05-08 12:45:00,69.2,54.7,29.85,South,170,7.0,10.0,60,0.00,,,0.00,Wunderground v.1.15,2013-05-08 17:45:00,
2013-05-08 12:47:00,69.3,54.8,29.86,SE,142,7.0,10.0,60,0.00,,,0.00,Wunderground v.1.15,2013-05-08 17:47:00,
2013-05-08 12:51:00,69.3,54.4,29.85,SE,145,6.0,6.0,59,0.00,,,0.00,Wunderground v.1.15,2013-05-08 17:51:00,
2013-05-08 12:56:00,69.1,55.1,29.85,SW,217,5.0,6.0,61,0.00,,,0.00,Wunderground v.1.15,2013-05-08 17:56:00,
2013-05-08 12:58:00,69.2,54.7,29.85,South,170,5.0,6.0,60,0.00,,,0.00,Wunderground v.1.15,2013-05-08 17:58:00,
2013-05-08 13:00:00,69.5,54.5,29.85,SE,125,4.0,5.0,59,0.00,,,0.00,Wunderground v.1.15,2013-05-08 18:00:00,
2013-05-08 13:02:00,69.5,54.5,29.85,SSE,155,4.0,8.0,59,0.00,,,0.00,Wunderground v.1.15,2013-05-08 18:02:00,
2013-05-08 13:04:00,69.5,54.1,29.85,SW,235,4.0,8.0,58,0.00,,,0.00,Wunderground v.1.15,2013-05-08 18:04:00,
2013-05-08 13:06:00,69.6,54.2,29.85,SSE,151,4.0,8.0,58,0.00,,,0.00,Wunderground v.1.15,2013-05-08 18:06:00,
2013-05-08 13:09:00,69.8,54.8,29.85,SE,139,5.0,5.0,59,0.00,,,0.00,Wunderground v.1.15,2013-05-08 18:09:00,
2013-05-08 13:13:00,69.7,54.3,29.84,SE,136,5.0,8.0,58,0.00,,,0.00,Wunderground v.1.15,2013-05-08 18:13:00,
2013-05-08 13:16:00,69.6,53.7,29.85,SE,143,5.0,8.0,57,0.00,,,0.00,Wunderground v.1.15,2013-05-08 18:16:00,
2013-05-08 13:20:00,69.7,53.8,29.85,SE,145,5.0,8.0,57,0.00,,,0.00,Wunderground v.1.15,2013-05-08 18:20:00,
2013-05-08 13:24:00,69.8,53.4,29.85,SSE,149,6.0,9.0,56,0.00,,,0.00,Wunderground v.1.15,2013-05-08 18:24:00,
2013-05-08 13:26:00,69.9,53.5,29.85,SSE,160,6.0,9.0,56,0.00,,,0.00,Wunderground v.1.15,2013-05-08 18:26:00,
2013-05-08 13:30:00,70.0,53.6,29.84,SE,131,6.0,9.0,56,0.00,,,0.00,Wunderground v.1.15,2013-05-08 18:30:00,
2013-05-08 13:31:00,69.9,54.0,29.84,SE,145,6.0,9.0,57,0.00,,,0.00,Wunderground v.1.15,2013-05-08 18:31:00,
2013-05-08 13:38:00,69.4,53.5,29.84,SSE,153,7.0,9.0,57,0.00,,,0.00,Wunderground v.1.15,2013-05-08 18:38:00,
2013-05-08 13:40:00,69.3,53.9,29.84,SE,145,7.0,8.0,58,0.00,,,0.00,Wunderground v.1.15,2013-05-08 18:40:00,
2013-05-08 13:42:00,69.1,53.7,29.84,SSE,150,7.0,8.0,58,0.00,,,0.00,Wunderground v.1.15,2013-05-08 18:42:00,
2013-05-08 13:44:00,69.2,52.8,29.84,SSE,167,7.0,8.0,56,0.00,,,0.00,Wunderground v.1.15,2013-05-08 18:44:00,
2013-05-08 13:46:00,69.1,52.7,29.84,SW,214,7.0,9.0,56,0.00,,,0.00,Wunderground v.1.15,2013-05-08 18:46:00,
2013-05-08 13:48:00,69.3,53.9,29.84,South,169,7.0,9.0,58,0.00,,,0.00,Wunderground v.1.15,2013-05-08 18:48:00,
2013-05-08 13:49:00,69.5,53.6,29.84,SE,145,7.0,7.0,57,0.00,,,0.00,Wunderground v.1.15,2013-05-08 18:49:00,
2013-05-08 13:52:00,69.8,53.4,29.84,SSE,158,6.0,8.0,56,0.00,,,0.00,Wunderground v.1.15,2013-05-08 18:52:00,
2013-05-08 13:53:00,69.9,52.5,29.84,SSE,156,6.0,8.0,54,0.00,,,0.00,Wunderground v.1.15,2013-05-08 18:53:00,
2013-05-08 13:58:00,69.8,52.9,29.84,SSE,165,7.0,9.0,55,0.00,,,0.00,Wunderground v.1.15,2013-05-08 18:58:00,
2013-05-08 14:00:00,69.5,53.6,29.84,SSE,163,7.0,7.0,57,0.00,,,0.00,Wunderground v.1.15,2013-05-08 19:00:00,
2013-05-08 14:02:00,69.4,53.0,29.84,SSE,160,7.0,8.0,56,0.00,,,0.00,Wunderground v.1.15,2013-05-08 19:02:00,
2013-05-08 14:04:00,69.5,53.1,29.84,SSE,148,7.0,8.0,56,0.00,,,0.00,Wunderground v.1.15,2013-05-08 19:04:00,
2013-05-08 14:08:00,69.6,54.2,29.84,South,172,6.0,8.0,58,0.00,,,0.00,Wunderground v.1.15,2013-05-08 19:08:00,
2013-05-08 14:10:00,69.8,53.4,29.84,SSE,152,5.0,8.0,56,0.00,,,0.00,Wunderground v.1.15,2013-05-08 19:10:00,
2013-05-08 14:11:00,70.0,54.1,29.84,South,176,5.0,8.0,57,0.00,,,0.00,Wunderground v.1.15,2013-05-08 19:11:00,
2013-05-08 14:17:00,70.6,53.6,29.83,SE,134,6.0,8.0,55,0.00,,,0.00,Wunderground v.1.15,2013-05-08 19:17:00,
2013-05-08 14:20:00,70.8,53.3,29.83,SE,135,5.0,5.0,54,0.00,,,0.00,Wunderground v.1.15,2013-05-08 19:20:00,
2013-05-08 14:22:00,70.8,53.8,29.83,SE,131,5.0,8.0,55,0.00,,,0.00,Wunderground v.1.15,2013-05-08 19:22:00,
2013-05-08 14:26:00,70.5,54.0,29.83,SSE,163,4.0,8.0,56,0.00,,,0.00,Wunderground v.1.15,2013-05-08 19:26:00,
2013-05-08 14:28:00,70.5,53.1,29.83,SE,143,4.0,8.0,54,0.00,,,0.00,Wunderground v.1.15,2013-05-08 19:28:00,
2013-05-08 14:32:00,70.1,53.2,29.83,SE,134,5.0,10.0,55,0.00,,,0.00,Wunderground v.1.15,2013-05-08 19:32:00,
2013-05-08 14:34:00,69.7,53.3,29.83,SE,135,6.0,10.0,56,0.00,,,0.00,Wunderground v.1.15,2013-05-08 19:34:00,
2013-05-08 14:35:00,69.4,53.0,29.83,SSE,152,6.0,10.0,56,0.00,,,0.00,Wunderground v.1.15,2013-05-08 19:35:00,
2013-05-08 14:37:00,69.1,53.2,29.83,SE,141,7.0,10.0,57,0.00,,,0.00,Wunderground v.1.15,2013-05-08 19:37:00,
2013-05-08 14:39:00,69.0,53.6,29.83,SSE,155,7.0,7.0,58,0.00,,,0.00,Wunderground v.1.15,2013-05-08 19:39:00,
2013-05-08 14:42:00,68.9,53.0,29.83,SSE,155,7.0,9.0,57,0.00,,,0.00,Wunderground v.1.15,2013-05-08 19:42:00,
2013-05-08 14:44:00,68.8,52.9,29.83,SSE,148,6.0,9.0,57,0.00,,,0.00,Wunderground v.1.15,2013-05-08 19:44:00,
2013-05-08 14:48:00,68.8,52.9,29.83,SSE,165,6.0,9.0,57,0.00,,,0.00,Wunderground v.1.15,2013-05-08 19:48:00,
2013-05-08 14:50:00,68.8,53.9,29.83,SSE,155,6.0,6.0,59,0.00,,,0.00,Wunderground v.1.15,2013-05-08 19:50:00,
2013-05-08 14:52:00,68.8,53.9,29.83,SSE,159,6.0,8.0,59,0.00,,,0.00,Wunderground v.1.15,2013-05-08 19:52:00,
2013-05-08 14:54:00,68.8,53.4,29.83,SSE,162,5.0,8.0,58,0.00,,,0.00,Wunderground v.1.15,2013-05-08 19:54:00,
2013-05-08 14:55:00,68.9,53.0,29.83,South,177,5.0,8.0,57,0.00,,,0.00,Wunderground v.1.15,2013-05-08 19:55:00,
2013-05-08 14:57:00,69.0,53.6,29.83,SSW,195,5.0,8.0,58,0.00,,,0.00,Wunderground v.1.15,2013-05-08 19:57:00,
2013-05-08 14:59:00,69.0,53.6,29.83,SSW,194,5.0,5.0,58,0.00,,,0.00,Wunderground v.1.15,2013-05-08 19:59:00,
2013-05-08 15:02:00,69.1,53.7,29.84,SSE,162,5.0,8.0,58,0.00,,,0.00,Wunderground v.1.15,2013-05-08 20:02:00,
2013-05-08 15:06:00,68.9,54.0,29.84,South,187,5.0,8.0,59,0.00,,,0.00,Wunderground v.1.15,2013-05-08 20:06:00,
2013-05-08 15:08:00,68.7,53.8,29.83,SSW,195,4.0,8.0,59,0.00,,,0.00,Wunderground v.1.15,2013-05-08 20:08:00,
2013-05-08 15:10:00,68.7,53.8,29.83,SSW,212,4.0,8.0,59,0.00,,,0.00,Wunderground v.1.15,2013-05-08 20:10:00,
2013-05-08 15:12:00,68.6,53.2,29.83,SSE,151,4.0,8.0,58,0.00,,,0.00,Wunderground v.1.15,2013-05-08 20:12:00,
2013-05-08 15:14:00,68.5,53.6,29.84,SSE,160,5.0,8.0,59,0.00,,,0.00,Wunderground v.1.15,2013-05-08 20:14:00,
2013-05-08 15:18:00,68.4,54.0,29.84,SW,219,6.0,14.0,60,0.00,,,0.00,Wunderground v.1.15,2013-05-08 20:18:00,
2013-05-08 15:21:00,67.1,56.2,29.84,South,174,8.0,8.0,68,0.00,,,0.00,Wunderground v.1.15,2013-05-08 20:21:00,
2013-05-08 15:24:00,66.4,55.9,29.85,SSW,210,8.0,14.0,69,0.00,,,0.00,Wunderground v.1.15,2013-05-08 20:24:00,
2013-05-08 15:26:00,65.8,57.7,29.85,SW,235,9.0,14.0,75,0.87,,,0.03,Wunderground v.1.15,2013-05-08 20:26:00,
2013-05-08 15:28:00,65.2,58.2,29.85,WSW,239,10.0,14.0,78,0.64,,,0.06,Wunderground v.1.15,2013-05-08 20:28:00,
2013-05-08 15:32:00,63.9,58.3,29.86,WSW,243,10.0,11.0,82,2.09,,,0.12,Wunderground v.1.15,2013-05-08 20:32:00,
2013-05-08 15:36:00,62.1,58.2,29.86,WSW,249,10.0,11.0,87,1.79,,,0.22,Wunderground v.1.15,2013-05-08 20:36:00,
2013-05-08 15:39:00,60.7,58.4,29.86,WSW,255,9.0,9.0,92,2.23,,,0.30,Wunderground v.1.15,2013-05-08 20:39:00,
2013-05-08 15:41:00,60.3,58.6,29.85,WNW,288,8.0,9.0,94,0.66,,,0.33,Wunderground v.1.15,2013-05-08 20:41:00,
2013-05-08 15:43:00,59.9,58.5,29.85,WNW,288,7.0,9.0,95,0.40,,,0.34,Wunderground v.1.15,2013-05-08 20:43:00,
2013-05-08 15:48:00,59.5,58.4,29.85,WNW,288,5.0,9.0,96,0.10,,,0.34,Wunderground v.1.15,2013-05-08 20:48:00,
2013-05-08 15:50:00,59.5,58.6,29.85,WNW,288,4.0,8.0,97,0.08,,,0.34,Wunderground v.1.15,2013-05-08 20:50:00,
2013-05-08 15:56:00,59.4,58.5,29.85,WNW,285,5.0,8.0,97,0.05,,,0.35,Wunderground v.1.15,2013-05-08 20:56:00,
2013-05-08 15:58:00,59.5,58.9,29.85,WNW,288,5.0,8.0,98,0.05,,,0.35,Wunderground v.1.15,2013-05-08 20:58:00,
2013-05-08 16:00:00,59.5,58.9,29.85,WNW,283,5.0,5.0,98,0.05,,,0.35,Wunderground v.1.15,2013-05-08 21:00:00,
2013-05-08 16:06:00,59.4,58.8,29.85,WNW,293,5.0,8.0,98,0.05,,,0.35,Wunderground v.1.15,2013-05-08 21:06:00,
2013-05-08 16:10:00,59.3,58.7,29.85,WNW,294,5.0,5.0,98,0.04,,,0.35,Wunderground v.1.15,2013-05-08 21:10:00,
2013-05-08 16:12:00,59.2,58.6,29.85,NW,314,6.0,6.0,98,0.00,,,0.35,Wunderground v.1.15,2013-05-08 21:12:00,
2013-05-08 16:14:00,59.1,58.5,29.84,WNW,297,5.0,8.0,98,0.00,,,0.35,Wunderground v.1.15,2013-05-08 21:14:00,
2013-05-08 16:16:00,59.0,58.4,29.85,WNW,297,5.0,8.0,98,0.00,,,0.35,Wunderground v.1.15,2013-05-08 21:16:00,
2013-05-08 16:20:00,59.0,58.4,29.84,WNW,298,5.0,5.0,98,0.00,,,0.36,Wunderground v.1.15,2013-05-08 21:20:00,
2013-05-08 16:22:00,59.0,58.4,29.84,WNW,300,5.0,8.0,98,0.00,,,0.36,Wunderground v.1.15,2013-05-08 21:22:00,
2013-05-08 16:25:00,58.9,58.3,29.84,WNW,293,5.0,8.0,98,0.13,,,0.37,Wunderground v.1.15,2013-05-08 21:25:00,
2013-05-08 16:28:00,59.0,58.4,29.84,WNW,290,5.0,8.0,98,0.11,,,0.37,Wunderground v.1.15,2013-05-08 21:28:00,
2013-05-08 16:32:00,59.2,58.9,29.84,WNW,291,4.0,8.0,99,0.06,,,0.37,Wunderground v.1.15,2013-05-08 21:32:00,
2013-05-08 16:34:00,59.3,59.0,29.84,WNW,291,4.0,8.0,99,0.05,,,0.37,Wunderground v.1.15,2013-05-08 21:34:00,
2013-05-08 16:38:00,59.5,59.2,29.84,NNW,330,4.0,8.0,99,0.04,,,0.37,Wunderground v.1.15,2013-05-08 21:38:00,
2013-05-08 16:40:00,59.5,59.2,29.85,WNW,298,4.0,8.0,99,0.00,,,0.38,Wunderground v.1.15,2013-05-08 21:40:00,
2013-05-08 16:42:00,59.4,59.1,29.84,WNW,293,5.0,8.0,99,0.00,,,0.38,Wunderground v.1.15,2013-05-08 21:42:00,
2013-05-08 16:43:00,59.4,59.1,29.84,WNW,301,5.0,8.0,99,0.00,,,0.38,Wunderground v.1.15,2013-05-08 21:43:00,
2013-05-08 16:47:00,59.4,59.1,29.85,NW,308,5.0,8.0,99,0.00,,,0.38,Wunderground v.1.15,2013-05-08 21:47:00,
2013-05-08 16:50:00,59.4,59.1,29.85,WNW,295,5.0,8.0,99,0.00,,,0.38,Wunderground v.1.15,2013-05-08 21:50:00,
2013-05-08 16:52:00,59.4,59.1,29.85,WNW,297,5.0,8.0,99,0.00,,,0.38,Wunderground v.1.15,2013-05-08 21:52:00,
2013-05-08 16:54:00,59.3,59.0,29.84,NW,310,5.0,8.0,99,0.00,,,0.38,Wunderground v.1.15,2013-05-08 21:54:00,
2013-05-08 16:56:00,59.3,59.0,29.85,WNW,300,5.0,8.0,99,0.04,,,0.39,Wunderground v.1.15,2013-05-08 21:56:00,
2013-05-08 17:00:00,59.3,59.0,29.85,NW,315,5.0,5.0,99,0.04,,,0.39,Wunderground v.1.15,2013-05-08 22:00:00,
2013-05-08 17:02:00,59.3,59.0,29.84,NNW,327,5.0,8.0,99,0.04,,,0.39,Wunderground v.1.15,2013-05-08 22:02:00,
2013-05-08 17:05:00,59.1,58.8,29.84,WNW,300,5.0,8.0,99,0.04,,,0.39,Wunderground v.1.15,2013-05-08 22:05:00,
2013-05-08 17:10:00,59.0,58.7,29.85,NW,318,5.0,5.0,99,0.04,,,0.39,Wunderground v.1.15,2013-05-08 22:10:00,
2013-05-08 17:12:00,59.1,58.8,29.84,WNW,295,4.0,8.0,99,0.04,,,0.40,Wunderground v.1.15,2013-05-08 22:12:00,
2013-05-08 17:16:00,59.1,58.8,29.84,WSW,257,3.0,8.0,99,0.04,,,0.40,Wunderground v.1.15,2013-05-08 22:16:00,
2013-05-08 17:18:00,59.1,58.8,29.84,WSW,255,2.0,8.0,99,0.04,,,0.40,Wunderground v.1.15,2013-05-08 22:18:00,
2013-05-08 17:20:00,59.2,58.9,29.84,NNW,335,2.0,8.0,99,0.04,,,0.40,Wunderground v.1.15,2013-05-08 22:20:00,
2013-05-08 17:22:00,59.2,58.9,29.84,North,352,2.0,8.0,99,0.04,,,0.40,Wunderground v.1.15,2013-05-08 22:22:00,
2013-05-08 17:24:00,59.2,58.9,29.84,NNW,344,2.0,8.0,99,0.04,,,0.40,Wunderground v.1.15,2013-05-08 22:24:00,
2013-05-08 17:27:00,59.1,58.8,29.84,NNE,20,2.0,8.0,99,0.04,,,0.41,Wunderground v.1.15,2013-05-08 22:27:00,
2013-05-08 17:29:00,59.1,58.8,29.84,North,352,3.0,8.0,99,0.04,,,0.41,Wunderground v.1.15,2013-05-08 22:29:00,
2013-05-08 17:34:00,59.0,58.7,29.84,North,1,3.0,8.0,99,0.04,,,0.41,Wunderground v.1.15,2013-05-08 22:34:00,
2013-05-08 17:36:00,59.0,58.7,29.84,North,352,3.0,8.0,99,0.08,,,0.42,Wunderground v.1.15,2013-05-08 22:36:00,
2013-05-08 17:38:00,59.1,58.8,29.84,North,357,4.0,8.0,99,0.08,,,0.42,Wunderground v.1.15,2013-05-08 22:38:00,
2013-05-08 17:40:00,59.0,58.7,29.84,NNE,13,4.0,8.0,99,0.08,,,0.42,Wunderground v.1.15,2013-05-08 22:40:00,
2013-05-08 17:42:00,59.0,58.7,29.84,North,349,4.0,8.0,99,0.09,,,0.43,Wunderground v.1.15,2013-05-08 22:42:00,
2013-05-08 17:44:00,58.9,58.6,29.84,NNE,18,4.0,8.0,99,0.09,,,0.43,Wunderground v.1.15,2013-05-08 22:44:00,
2013-05-08 17:47:00,58.9,58.6,29.84,North,349,5.0,8.0,99,0.09,,,0.43,Wunderground v.1.15,2013-05-08 22:47:00,
2013-05-08 17:51:00,58.9,58.6,29.84,NNE,12,5.0,8.0,99,0.06,,,0.43,Wunderground v.1.15,2013-05-08 22:51:00,
2013-05-08 17:54:00,58.9,58.6,29.84,North,355,4.0,8.0,99,0.06,,,0.44,Wunderground v.1.15,2013-05-08 22:54:00,
2013-05-08 17:58:00,58.9,58.6,29.84,NNE,18,4.0,8.0,99,0.06,,,0.44,Wunderground v.1.15,2013-05-08 22:58:00,
2013-05-08 18:00:00,58.9,58.6,29.84,NNE,26,4.0,8.0,99,0.06,,,0.44,Wunderground v.1.15,2013-05-08 23:00:00,
2013-05-08 18:02:00,58.9,58.9,29.84,NNE,16,4.0,8.0,100,0.06,,,0.44,Wunderground v.1.15,2013-05-08 23:02:00,
2013-05-08 18:04:00,59.0,59.0,29.84,NNE,18,4.0,8.0,100,0.05,,,0.44,Wunderground v.1.15,2013-05-08 23:04:00,
2013-05-08 18:08:00,59.0,59.0,29.84,North,11,4.0,8.0,100,0.04,,,0.45,Wunderground v.1.15,2013-05-08 23:08:00,
2013-05-08 18:09:00,58.9,58.9,29.84,North,4,4.0,4.0,100,0.04,,,0.45,Wunderground v.1.15,2013-05-08 23:09:00,
2013-05-08 18:11:00,58.8,58.8,29.84,NNE,18,4.0,6.0,100,0.04,,,0.45,Wunderground v.1.15,2013-05-08 23:11:00,
2013-05-08 18:16:00,58.5,58.2,29.85,North,9,5.0,8.0,99,0.07,,,0.46,Wunderground v.1.15,2013-05-08 23:16:00,
2013-05-08 18:18:00,58.6,58.3,29.84,NNE,18,5.0,8.0,99,0.07,,,0.46,Wunderground v.1.15,2013-05-08 23:18:00,
2013-05-08 18:20:00,58.6,58.3,29.84,NNE,24,5.0,8.0,99,0.07,,,0.46,Wunderground v.1.15,2013-05-08 23:20:00,
2013-05-08 18:22:00,58.4,58.1,29.84,NNE,33,6.0,8.0,99,0.07,,,0.46,Wunderground v.1.15,2013-05-08 23:22:00,
2013-05-08 18:24:00,58.3,58.0,29.85,NNE,26,5.0,8.0,99,0.07,,,0.46,Wunderground v.1.15,2013-05-08 23:24:00,
2013-05-08 18:26:00,58.3,58.0,29.85,NNE,18,5.0,8.0,99,0.05,,,0.46,Wunderground v.1.15,2013-05-08 23:26:00,
2013-05-08 18:28:00,58.2,57.9,29.85,NNE,23,6.0,8.0,99,0.05,,,0.46,Wunderground v.1.15,2013-05-08 23:28:00,
2013-05-08 18:33:00,58.2,57.9,29.85,NE,34,5.0,8.0,99,0.00,,,0.46,Wunderground v.1.15,2013-05-08 23:33:00,
2013-05-08 18:36:00,58.2,57.9,29.84,NE,39,5.0,8.0,99,0.00,,,0.46,Wunderground v.1.15,2013-05-08 23:36:00,
2013-05-08 18:38:00,58.2,58.2,29.84,NNE,18,4.0,8.0,100,0.00,,,0.46,Wunderground v.1.15,2013-05-08 23:38:00,
2013-05-08 18:42:00,58.3,58.3,29.84,NNE,25,4.0,8.0,100,0.00,,,0.46,Wunderground v.1.15,2013-05-08 23:42:00,
2013-05-08 18:44:00,58.3,58.3,29.84,NNE,26,4.0,8.0,100,0.00,,,0.46,Wunderground v.1.15,2013-05-08 23:44:00,
2013-05-08 18:52:00,58.1,57.8,29.84,ENE,63,5.0,8.0,99,0.00,,,0.47,Wunderground v.1.15,2013-05-08 23:52:00,
2013-05-08 18:54:00,58.1,57.8,29.84,NE,53,5.0,8.0,99,0.00,,,0.47,Wunderground v.1.15,2013-05-08 23:54:00,
2013-05-08 18:58:00,58.0,57.7,29.84,NNE,27,4.0,8.0,99,0.00,,,0.47,Wunderground v.1.15,2013-05-08 23:58:00,
2013-05-08 19:00:00,57.9,57.6,29.84,North,6,4.0,8.0,99,0.00,,,0.47,Wunderground v.1.15,2013-05-09 00:00:00,
2013-05-08 19:01:00,57.9,57.6,29.84,NE,43,4.0,8.0,99,0.00,,,0.47,Wunderground v.1.15,2013-05-09 00:01:00,
2013-05-08 19:06:00,57.9,57.6,29.84,NNE,27,5.0,8.0,99,0.00,,,0.47,Wunderground v.1.15,2013-05-09 00:06:00,
2013-05-08 19:08:00,57.9,57.6,29.84,NNE,20,5.0,8.0,99,0.00,,,0.47,Wunderground v.1.15,2013-05-09 00:08:00,
2013-05-08 19:10:00,57.9,57.6,29.84,NE,37,5.0,5.0,99,0.00,,,0.47,Wunderground v.1.15,2013-05-09 00:10:00,
2013-05-08 19:14:00,57.9,57.9,29.85,NNE,33,4.0,8.0,100,0.00,,,0.47,Wunderground v.1.15,2013-05-09 00:14:00,
2013-05-08 19:16:00,57.9,57.9,29.84,NE,34,2.0,8.0,100,0.00,,,0.47,Wunderground v.1.15,2013-05-09 00:16:00,
2013-05-08 19:18:00,57.9,57.9,29.84,NE,34,2.0,8.0,100,0.00,,,0.47,Wunderground v.1.15,2013-05-09 00:18:00,
2013-05-08 19:23:00,57.8,57.8,29.84,NE,49,1.0,8.0,100,0.00,,,0.47,Wunderground v.1.15,2013-05-09 00:23:00,
2013-05-08 19:25:00,57.8,57.8,29.84,ENE,72,1.0,8.0,100,0.00,,,0.47,Wunderground v.1.15,2013-05-09 00:25:00,
2013-05-08 19:28:00,57.8,57.8,29.84,ESE,114,1.0,8.0,100,0.00,,,0.47,Wunderground v.1.15,2013-05-09 00:28:00,
2013-05-08 19:32:00,57.7,57.7,29.84,ENE,73,1.0,8.0,100,0.00,,,0.47,Wunderground v.1.15,2013-05-09 00:32:00,
2013-05-08 19:34:00,57.7,57.7,29.84,NE,50,1.0,8.0,100,0.00,,,0.47,Wunderground v.1.15,2013-05-09 00:34:00,
2013-05-08 19:40:00,57.7,57.7,29.84,NE,49,1.0,8.0,100,0.00,,,0.47,Wunderground v.1.15,2013-05-09 00:40:00,
2013-05-08 19:42:00,57.7,57.7,29.84,NE,50,1.0,8.0,100,0.00,,,0.47,Wunderground v.1.15,2013-05-09 00:42:00,
2013-05-08 19:47:00,57.8,57.8,29.84,East,86,0.0,8.0,100,0.00,,,0.47,Wunderground v.1.15,2013-05-09 00:47:00,
2013-05-08 19:50:00,57.8,57.8,29.84,East,84,0.0,8.0,100,0.00,,,0.47,Wunderground v.1.15,2013-05-09 00:50:00,
2013-05-08 19:52:00,57.7,57.7,29.84,East,90,0.0,8.0,100,0.00,,,0.47,Wunderground v.1.15,2013-05-09 00:52:00,
2013-05-08 19:56:00,57.6,57.6,29.84,East,91,0.0,8.0,100,0.00,,,0.47,Wunderground v.1.15,2013-05-09 00:56:00,
2013-05-08 19:58:00,57.5,57.5,29.84,East,87,0.0,8.0,100,0.00,,,0.47,Wunderground v.1.15,2013-05-09 00:58:00,
2013-05-08 20:00:00,57.4,57.4,29.84,East,87,0.0,8.0,100,0.00,,,0.47,Wunderground v.1.15,2013-05-09 01:00:00,
2013-05-08 20:02:00,57.4,57.4,29.84,East,89,0.0,8.0,100,0.00,,,0.47,Wunderground v.1.15,2013-05-09 01:02:00,
2013-05-08 20:05:00,57.5,57.5,29.84,NE,43,0.0,8.0,100,0.00,,,0.47,Wunderground v.1.15,2013-05-09 01:05:00,
2013-05-08 20:10:00,57.5,57.5,29.84,NE,47,1.0,8.0,100,0.00,,,0.47,Wunderground v.1.15,2013-05-09 01:10:00,
2013-05-08 20:12:00,57.5,57.5,29.84,NE,50,1.0,8.0,100,0.00,,,0.47,Wunderground v.1.15,2013-05-09 01:12:00,
2013-05-08 20:16:00,57.6,57.6,29.84,NE,50,1.0,8.0,100,0.00,,,0.48,Wunderground v.1.15,2013-05-09 01:16:00,
2013-05-08 20:18:00,57.6,57.6,29.84,NE,49,1.0,8.0,100,0.00,,,0.48,Wunderground v.1.15,2013-05-09 01:18:00,
2013-05-08 20:20:00,57.6,57.6,29.84,NE,50,1.0,1.0,100,0.00,,,0.48,Wunderground v.1.15,2013-05-09 01:20:00,
2013-05-08 20:24:00,57.6,57.6,29.84,NE,49,1.0,8.0,100,0.00,,,0.48,Wunderground v.1.15,2013-05-09 01:24:00,
2013-05-08 20:26:00,57.6,57.6,29.84,NE,53,1.0,8.0,100,0.00,,,0.48,Wunderground v.1.15,2013-05-09 01:26:00,
2013-05-08 20:27:00,57.6,57.6,29.84,NE,55,1.0,8.0,100,0.00,,,0.48,Wunderground v.1.15,2013-05-09 01:27:00,
2013-05-08 20:29:00,57.6,57.6,29.84,NE,56,1.0,8.0,100,0.00,,,0.48,Wunderground v.1.15,2013-05-09 01:29:00,
2013-05-08 20:34:00,57.5,57.5,29.85,NE,56,1.0,8.0,100,0.00,,,0.48,Wunderground v.1.15,2013-05-09 01:34:00,
2013-05-08 20:38:00,57.6,57.6,29.85,NE,56,1.0,8.0,100,0.00,,,0.48,Wunderground v.1.15,2013-05-09 01:38:00,
2013-05-08 20:40:00,57.6,57.6,29.85,NE,56,0.0,8.0,100,0.00,,,0.48,Wunderground v.1.15,2013-05-09 01:40:00,
2013-05-08 20:46:00,57.6,57.6,29.85,NE,56,0.0,8.0,100,0.00,,,0.48,Wunderground v.1.15,2013-05-09 01:46:00,
2013-05-08 20:49:00,57.6,57.6,29.85,ENE,58,1.0,1.0,100,0.00,,,0.48,Wunderground v.1.15,2013-05-09 01:49:00,
2013-05-08 20:51:00,57.5,57.5,29.85,ENE,58,1.0,8.0,100,0.00,,,0.48,Wunderground v.1.15,2013-05-09 01:51:00,
2013-05-08 20:56:00,57.4,57.4,29.85,NE,56,0.0,8.0,100,0.00,,,0.48,Wunderground v.1.15,2013-05-09 01:56:00,
2013-05-08 20:58:00,57.3,57.3,29.85,NE,56,0.0,8.0,100,0.00,,,0.48,Wunderground v.1.15,2013-05-09 01:58:00,
2013-05-08 21:02:00,57.1,56.8,29.85,ENE,58,0.0,8.0,99,0.00,,,0.48,Wunderground v.1.15,2013-05-09 02:02:00,
2013-05-08 21:06:00,57.1,56.8,29.85,NE,46,1.0,8.0,99,0.00,,,0.48,Wunderground v.1.15,2013-05-09 02:06:00,
2013-05-08 21:08:00,57.1,56.8,29.85,NE,45,1.0,8.0,99,0.00,,,0.48,Wunderground v.1.15,2013-05-09 02:08:00,
2013-05-08 21:11:00,57.1,57.1,29.85,NNE,29,2.0,8.0,100,0.00,,,0.48,Wunderground v.1.15,2013-05-09 02:11:00,
2013-05-08 21:14:00,57.1,57.1,29.85,NE,43,2.0,8.0,100,0.00,,,0.48,Wunderground v.1.15,2013-05-09 02:14:00,
2013-05-08 21:16:00,57.1,57.1,29.85,NE,55,2.0,8.0,100,0.00,,,0.48,Wunderground v.1.15,2013-05-09 02:16:00,
2013-05-08 21:18:00,57.2,57.2,29.85,NE,53,1.0,8.0,100,0.00,,,0.48,Wunderground v.1.15,2013-05-09 02:18:00,
2013-05-08 21:24:00,57.3,57.3,29.85,NE,43,1.0,8.0,100,0.00,,,0.48,Wunderground v.1.15,2013-05-09 02:24:00,
2013-05-08 21:26:00,57.4,57.4,29.85,NE,44,1.0,8.0,100,0.00,,,0.48,Wunderground v.1.15,2013-05-09 02:26:00,
2013-05-08 21:30:00,57.4,57.4,29.85,NE,53,2.0,2.0,100,0.00,,,0.48,Wunderground v.1.15,2013-05-09 02:30:00,
2013-05-08 21:31:00,57.3,57.3,29.85,East,80,2.0,8.0,100,0.00,,,0.48,Wunderground v.1.15,2013-05-09 02:31:00,
2013-05-08 21:33:00,57.3,57.3,29.85,East,79,1.0,8.0,100,0.00,,,0.48,Wunderground v.1.15,2013-05-09 02:33:00,
2013-05-08 21:36:00,57.3,57.3,29.85,East,98,1.0,8.0,100,0.00,,,0.48,Wunderground v.1.15,2013-05-09 02:36:00,
2013-05-08 21:40:00,57.3,57.3,29.85,ENE,65,1.0,8.0,100,0.00,,,0.48,Wunderground v.1.15,2013-05-09 02:40:00,
2013-05-08 21:42:00,57.2,56.9,29.85,ENE,63,1.0,8.0,99,0.00,,,0.48,Wunderground v.1.15,2013-05-09 02:42:00,
2013-05-08 21:46:00,57.2,56.9,29.85,ENE,62,1.0,8.0,99,0.00,,,0.48,Wunderground v.1.15,2013-05-09 02:46:00,
2013-05-08 21:50:00,57.1,56.8,29.85,ENE,63,1.0,1.0,99,0.00,,,0.48,Wunderground v.1.15,2013-05-09 02:50:00,
2013-05-08 21:53:00,57.0,56.7,29.86,ENE,62,0.0,8.0,99,0.00,,,0.48,Wunderground v.1.15,2013-05-09 02:53:00,
2013-05-08 21:58:00,57.0,56.7,29.86,ENE,63,0.0,8.0,99,0.00,,,0.48,Wunderground v.1.15,2013-05-09 02:58:00,
2013-05-08 22:00:00,56.9,56.6,29.86,ENE,62,0.0,8.0,99,0.00,,,0.48,Wunderground v.1.15,2013-05-09 03:00:00,
2013-05-08 22:02:00,56.9,56.6,29.86,ENE,62,0.0,8.0,99,0.00,,,0.48,Wunderground v.1.15,2013-05-09 03:02:00,
2013-05-08 22:06:00,56.9,56.6,29.86,ENE,63,0.0,8.0,99,0.00,,,0.48,Wunderground v.1.15,2013-05-09 03:06:00,
2013-05-08 22:08:00,56.8,56.5,29.86,ENE,62,0.0,8.0,99,0.00,,,0.48,Wunderground v.1.15,2013-05-09 03:08:00,
2013-05-08 22:12:00,56.9,56.6,29.86,ENE,63,0.0,8.0,99,0.00,,,0.48,Wunderground v.1.15,2013-05-09 03:12:00,
2013-05-08 22:13:00,56.9,56.6,29.86,ENE,63,0.0,8.0,99,0.00,,,0.48,Wunderground v.1.15,2013-05-09 03:13:00,
2013-05-08 22:18:00,57.0,56.7,29.85,ENE,62,0.0,8.0,99,0.00,,,0.48,Wunderground v.1.15,2013-05-09 03:18:00,
2013-05-08 22:20:00,57.0,56.7,29.85,ENE,63,0.0,8.0,99,0.00,,,0.48,Wunderground v.1.15,2013-05-09 03:20:00,
2013-05-08 22:26:00,57.1,57.1,29.85,ENE,62,0.0,8.0,100,0.00,,,0.48,Wunderground v.1.15,2013-05-09 03:26:00,
2013-05-08 22:30:00,57.1,57.1,29.85,ENE,62,0.0,8.0,100,0.00,,,0.48,Wunderground v.1.15,2013-05-09 03:30:00,
2013-05-08 22:32:00,57.1,56.8,29.85,ENE,62,0.0,8.0,99,0.00,,,0.48,Wunderground v.1.15,2013-05-09 03:32:00,
2013-05-08 22:34:00,57.1,56.8,29.85,ENE,63,0.0,8.0,99,0.00,,,0.48,Wunderground v.1.15,2013-05-09 03:34:00,
2013-05-08 22:37:00,57.1,57.1,29.85,ENE,63,0.0,8.0,100,0.00,,,0.48,Wunderground v.1.15,2013-05-09 03:37:00,
2013-05-08 22:40:00,57.2,57.2,29.85,ENE,69,0.0,8.0,100,0.00,,,0.48,Wunderground v.1.15,2013-05-09 03:40:00,
2013-05-08 22:44:00,57.3,57.3,29.85,ESE,102,0.0,8.0,100,0.00,,,0.48,Wunderground v.1.15,2013-05-09 03:44:00,
2013-05-08 22:46:00,57.3,57.3,29.85,SE,135,1.0,8.0,100,0.00,,,0.48,Wunderground v.1.15,2013-05-09 03:46:00,
2013-05-08 22:48:00,57.2,57.2,29.85,SE,135,1.0,8.0,100,0.00,,,0.48,Wunderground v.1.15,2013-05-09 03:48:00,
2013-05-08 22:50:00,57.2,57.2,29.85,SE,135,0.0,8.0,100,0.00,,,0.48,Wunderground v.1.15,2013-05-09 03:50:00,
2013-05-08 22:52:00,57.1,56.8,29.85,SE,135,0.0,8.0,99,0.00,,,0.48,Wunderground v.1.15,2013-05-09 03:52:00,
2013-05-08 22:55:00,57.1,56.8,29.85,SE,135,0.0,8.0,99,0.00,,,0.48,Wunderground v.1.15,2013-05-09 03:55:00,
2013-05-08 22:57:00,57.1,56.8,29.84,SE,135,0.0,8.0,99,0.00,,,0.48,Wunderground v.1.15,2013-05-09 03:57:00,
2013-05-08 22:59:00,57.0,56.7,29.84,SE,136,0.0,8.0,99,0.00,,,0.48,Wunderground v.1.15,2013-05-09 03:59:00,
2013-05-08 23:02:00,57.0,56.7,29.84,SE,135,0.0,8.0,99,0.00,,,0.48,Wunderground v.1.15,2013-05-09 04:02:00,
2013-05-08 23:04:00,57.0,56.7,29.84,SE,135,0.0,8.0,99,0.00,,,0.48,Wunderground v.1.15,2013-05-09 04:04:00,
2013-05-08 23:06:00,57.0,56.7,29.84,SE,135,0.0,8.0,99,0.00,,,0.48,Wunderground v.1.15,2013-05-09 04:06:00,
2013-05-08 23:08:00,56.9,56.6,29.84,SE,135,0.0,8.0,99,0.00,,,0.48,Wunderground v.1.15,2013-05-09 04:08:00,
2013-05-08 23:10:00,56.9,56.6,29.85,SE,135,0.0,8.0,99,0.00,,,0.48,Wunderground v.1.15,2013-05-09 04:10:00,
2013-05-08 23:12:00,56.9,56.6,29.85,SE,136,0.0,8.0,99,0.00,,,0.48,Wunderground v.1.15,2013-05-09 04:12:00,
2013-05-08 23:14:00,56.9,56.6,29.85,SE,135,0.0,8.0,99,0.00,,,0.48,Wunderground v.1.15,2013-05-09 04:14:00,
2013-05-08 23:19:00,56.9,56.6,29.85,SE,135,0.0,8.0,99,0.00,,,0.48,Wunderground v.1.15,2013-05-09 04:19:00,
2013-05-08 23:22:00,56.9,56.9,29.85,SE,135,0.0,8.0,100,0.00,,,0.48,Wunderground v.1.15,2013-05-09 04:22:00,
2013-05-08 23:24:00,56.9,56.6,29.85,SE,135,0.0,8.0,99,0.00,,,0.48,Wunderground v.1.15,2013-05-09 04:24:00,
2013-05-08 23:28:00,56.9,56.9,29.85,SE,135,0.0,8.0,100,0.00,,,0.48,Wunderground v.1.15,2013-05-09 04:28:00,
2013-05-08 23:30:00,56.8,56.5,29.84,SE,135,0.0,8.0,99,0.00,,,0.48,Wunderground v.1.15,2013-05-09 04:30:00,
2013-05-08 23:32:00,56.9,56.9,29.84,SE,135,0.0,8.0,100,0.00,,,0.48,Wunderground v.1.15,2013-05-09 04:32:00,
2013-05-08 23:34:00,56.9,56.9,29.84,SE,135,0.0,8.0,100,0.00,,,0.48,Wunderground v.1.15,2013-05-09 04:34:00,
2013-05-08 23:36:00,56.9,56.9,29.84,SE,136,0.0,8.0,100,0.00,,,0.48,Wunderground v.1.15,2013-05-09 04:36:00,
2013-05-08 23:39:00,56.9,56.9,29.84,SE,136,0.0,8.0,100,0.00,,,0.48,Wunderground v.1.15,2013-05-09 04:39:00,
2013-05-08 23:46:00,56.8,56.8,29.84,SE,135,0.0,8.0,100,0.00,,,0.48,Wunderground v.1.15,2013-05-09 04:46:00,
2013-05-08 23:48:00,56.8,56.8,29.84,SE,135,0.0,8.0,100,0.00,,,0.48,Wunderground v.1.15,2013-05-09 04:48:00,
2013-05-08 23:52:00,56.7,56.7,29.84,SE,135,0.0,8.0,100,0.00,,,0.48,Wunderground v.1.15,2013-05-09 04:52:00,
2013-05-08 23:54:00,56.7,56.4,29.84,SE,135,0.0,8.0,99,0.00,,,0.48,Wunderground v.1.15,2013-05-09 04:54:00,
2013-05-08 23:56:00,56.7,56.4,29.84,SE,135,0.0,8.0,99,0.00,,,0.48,Wunderground v.1.15,2013-05-09 04:56:00,